To NAV CANADA Home Page Login to a new session Search on AWWS site Feedback and Comments Disclaimer Vers la page française équivalente Tips FAQ What's new on the site To the Forecasts and Observations / NOTAM section To "File a Flight Plan" website Publications and other links Update of the User's profile FIC Telephone Numbers My Weather Data Folder Route Weather Data Regional Weather Data Local Weather Data To the Forecasts and Observations / NOTAM section
Request Generated 03/02/2015 at 12:42:38 UTC . Weather information available at that time is displayed.

METAR/TAF

KINDERSLEY/KINDERSLEY REGIONAL/SK    

METAR CYKY 021200Z 19007KT 15SM BKN260 M11/M14 A2971 RMK CI7 SLP106=
METAR CYKY 021100Z 19008KT 15SM SCT100 BKN260 M10/M14 A2973 RMK
AC4CI3 SLP110=
METAR CYKY 021000Z 16012KT 15SM SCT090 BKN260 M09/M13 A2975 RMK
AC4CI3 SLP116=

CYKY - No TAF is issued for this station

Your time UTC time
Weather data provided by Environment Canada and NAV CANADA